Location: Newark
(38.1089°N, 103.8675°W)
Time: 12:04:34
(UTC+00:00)

Envisat - Pass Details

Date: 18 December 2019
Orbit: 764 x 766 km, 98.1° (Epoch: 18 January)

Event Time Altitude Azimuth Distance (km) Brightness Sun altitude
Rises 00:54:25 0° 167° (SSE) 3,217 6.3 -14.7°
Reaches altitude 10° 00:56:42 10° 168° (SSE) 2,295 5.5 -15.1°
Maximum altitude 01:01:46 85° 257° (WSW) 774 3.0 -16.1°
Drops below altitude 10° 01:06:53 10° 346° (NNW) 2,310 5.5 -17.0°
Sets 01:09:12 0° 347° (NNW) 3,240 6.2 -17.4°
